◎198P/ODASの連結軌道    [From YC 2583]



ODAS周期彗星  198P/ODAS (1998 X1 = 2006 B7)

    1990年代,フランスのコート・ダジュールで行なわれていたODAS小惑星サー

ベイで1998年に発見された周期が6.7年のこの彗星は,2005年5月に回帰が予報さ

れていた.しかし,その回帰時には,彗星は検出されなかった.2008年3月にな

って,小惑星センターのウィリアムズ(G. V. Williams)は,キットピークとレ

モン山で2006年に行なわれたサーベイ画像上に発見され,報告されていた20等級

の天体がこの彗星と同じものであることを見つけた.調査の結果,彗星のイメー

ジは,2006年1月,2月,3月の7夜の観測群中に見つけられた(IAUC 8929, 

IAUC 8930).彗星の位置は,NK 844(= HICQ 2004)にある予報軌道から赤経方

向に-592",赤緯方向に+261"のずれがあり,近日点通過時刻の補正値にして儺=

+0.70日であった.予報軌道は,約4ヶ月の観測期間から計算されたもので,予報

は,比較的良くあっていたことになる.

    小惑星センターでは,1998年と2005年の観測からその連結軌道の計算を試み

たが,すべての観測をうまく表現することができなかった.しかし,その運動に

非重力効果の係数をA3項まで考慮するとすべての観測が表現できることが筆者に

よって指摘された(IAUC 8935).従来の氷の昇華を考慮した非重力効果では,

非重力効果の係数は,当初,A1= +15.81, A2= -0.3861, A3= -2.07と大きいもの

であった.しかし,非重力効果がCOの気化によるものと考えると,その係数をY1= 

+3.87, Y2= +0.1036, Y3= -1.72まで小さくすることができた.ただし,これは,

COの気化は,その軌道の全周で起きているため,当然の結果となる.幸いにも,

2005年10月7日に行なわれていた彗星の観測が見つかり,氷の昇華による非重力

効果の係数も,下記にあるとおり,A1 = -2.41, A2 = +1.0205, A3 = -2.2928と

小さくなった.なお,仮に彗星に働く非重力効果をCOの昇華によるものとすると,

その係数は,Y1= -1.06, Y2= +0.1678, Y3= -1.8832となる.いずれにしても,

この彗星は,その軌道面に垂直に働く非重力効果が大きいことになる.

    OAA計算課では,1998年から2006年までに行なわれた186個の観測から,次の

連結軌道を計算した.平均残差は0".60(http://www.oaa.gr.jp/~oaacs/nk/

nk1596.htm).なお,筆者によって,LONEOSサーベイの1999年2月12日の一夜の

観測群中にこの彗星の観測が見つけられている.彗星は,2042年9月24日に木星

に0.15 AUまで接近し,その軌道は,q= 3.357 AU, e= 0.231, ω= 189o.5, Ω=

240o.5, i= 8o.8と大きく変化するだろう.



   T = 2005 May 3.25918 TT      Epoch = 2005 Apr. 20.0 TT

   ω =  69o.05231                  e =   0.4472206           A1 =  -2.41

   Ω = 358.72643    (2000.0)       a =   3.5834339 AU        A2 =  +1.0205

   i =   1.34839                   n゚=   0.14529644          A3 =  -2.2928

   q =   1.9808484 AU              P =   6.78 年





軌道と残差:



 198P/1998 X1 = 2006 B7 (ODAS)

Epoch 2005 Apr. 20.0 TT = JDT 2453480.5  

T 2005 May 3.25918 TT                                   Nakano

q   1.9808484            (2000.0)            P               Q

n   0.14529644     Peri.   69.05231     +0.37817858     -0.92573251

a   3.5834339      Node   358.72643     +0.84036201     +0.34354004

e   0.4472206      Incl.    1.34839     +0.38829455     +0.15811246

P   6.78 (+/- 0.04 day)

From 186 observations 1998-2006, mean residual 0".60.

   Nongravitational parameters A1 = -2.41 +/- 0.35, A2 = +1.0205 +/- 0.3479, 

   A3 = -2.29 +/- 0.04.

   Orbit will be changed to q= 3.357 AU, e= 0.231, Peri.= 189.5, Node= 240.5,

   i= 8.8 since the comet will pass 0.15 AU from Jupiter on 2042 Sept. 24

Residuals in seconds of arc 

1998/                     981221 360  0.5+  0.2+    990213 691  0.5+  0.7+  

981215 910  0.3+  0.4-    981221 360  0.1-  0.5+    990214 693  0.1+  0.2-  

981215 910  0.1-  0.8-    981222 958  0.6+  0.9+    990214 693  0.2+  0.3-  

981215 910  0.5+  0.8-    981222 958  0.8-  0.5+    990214 693  0.1+  0.3-  

981216 046  0.5-  0.3+    981222 958  0.4+  0.1+    990214 360  0.2+  0.5-  

981216 046  0.7-  0.6-    981224 360  0.2-  0.1+    990214 360  0.3+  0.3-  

981216 046  0.5+  1.0-    981224 360  0.5-  0.6+    990214 360  0.1+  0.7-  

981216 557  0.5-  0.5-    981224 360  0.4+  0.1+    990215 118  0.2+  0.3-  

981216 910  0.5+  0.2-    981226 910  0.1-  0.3-    990215 118  0.2-  0.2+  

981216 046  0.5-  1.2-    981227 958 (0.1-  4.0+)   990216 691  0.8-  0.5-  

981216 046  1.0-  1.4-    981227 958  1.9-  0.6+    990216 691  0.2-  0.0   

981216 910  0.2+  0.1-    981227 402  0.3+  0.0     990216 691  1.2-  0.2-  

981216 910  0.0   0.4-    981227 402  0.1+  0.4-    990216 615  0.4+  0.5+  

981216 910  0.1-  0.5-    981227 402  0.6+  0.1+    990216 615  0.8+  0.3-  

981216 910  0.4-  1.1-    1999/                     990216 615  0.1-  0.1+  

981216 586  0.7+  0.3+    990107 897  1.6-  1.7+    990216 615  0.3+  0.2+  

981216 910  0.1-  0.6-    990107 897  0.2+  1.4+    990216 615  0.1-  0.1+  

981216 586  0.6+  0.5+    990107 897  0.4-  1.6+    990216 615  0.2-  0.1-  

981216 586  0.6+  0.3+    990110 372  0.4-  1.3+    990216 615  0.4-  0.1+  

981216 586  0.8+  0.5+    990113 693  0.6-  0.0     990216 615  0.8-  0.7+  

981216 586  0.6+  0.3+    990113 693  0.6-  0.0     990216 615  0.2+  0.1+  

981216 586  0.4+  0.3+    990113 693  0.4-  0.1-    990216 615  0.1+  0.5+  

981216 586  0.3+  0.5+    990114 910  0.9+  0.0     990216 615  0.1-  0.5+  

981216 586  0.4+  0.5+    990114 910  1.0+  0.5-    990216 615  0.7-  0.3+  

981216 586  0.8+  0.5+    990114 910  0.4-  0.9-    990216 615  0.2-  0.2+  

981216 586  0.7+  0.4+    990115 910  0.1+  0.9-    990216 615  0.2-  0.1+  

981216 586  0.5+  0.5+    990115 910  0.7+  0.7-    990216 615  0.2+  0.5+  

981216 586  0.6+  0.6+    990115 910  0.8+  1.3-    990223 897 (1.2+  2.6+) 

981216 586  0.6+  0.6+    990115 910  0.0   1.5-    990223 897 (3.2+  0.1-) 

981216 611  0.2+  0.7-    990115 910  0.2+  1.3-    990223 897  0.5+  0.9-  

981217 611 (2.6-  0.8-)   990115 910  0.2-  0.5-    990316 402  0.3-  0.2+  

981217 586  0.6-  0.2+    990115 910  0.1-  1.1-    990316 402 (0.5-  2.5-) 

981217 586  0.1+  0.3+    990119 910  0.2+  0.4+    990316 402  1.9-  1.3-  

981217 046  0.9-  0.3-    990119 910  0.4+  0.2+    990404 402  2.0-  0.2-  

981217 586  0.1-  0.0     990119 910  0.5+  0.0     990404 402  0.3-  0.5-  

981217 046  0.8-  0.3+    990119 910  0.4-  0.0     990414 693 (2.5-  1.0-) 

981217 046  0.3+  0.0     990119 910  0.1+  0.2+    990414 693 (5.4-  0.3+) 

981217 586  0.0   0.2+    990119 910  0.0   0.2+    2005/                   

981217 046  0.2+  0.0     990119 910  0.0   0.1+    051007 G96  1.6-  1.9-  

981217 046  0.7+  0.1-    990119 910  0.2+  0.2+    051007 G96  0.7-  1.4-  

981217 586  0.5-  0.2+    990119 910  0.2+  0.0     051007 G96  0.9-  0.9-  

981217 586  0.2-  0.3+    990119 910  0.0   0.6+    051007 G96  0.9+  1.7-  

981217 586  0.5-  0.4+    990121 360  0.7+  0.6-    2006/                   

981217 586  0.3-  0.3+    990121 360  0.5+  0.2-    060130 691  0.1-  0.0   

981217 586  0.5-  0.4+    990121 360  0.2+  0.3-    060130 691  0.4-  0.3-  

981217 586  0.6-  0.2+    990126 402 (2.3+  0.8+)   060130 691  0.4-  0.4-  

981217 586  0.1-  0.4+    990126 360  0.4+  0.1+    060207 691  0.4-  0.2+  

981217 586  0.0   0.2+    990126 360  0.2-  0.3-    060207 691  0.3-  0.0   

981218 511  0.1+  0.6+    990126 360  0.5+  0.2-    060207 691  0.0   0.1+  

981218 511  0.0   0.5+    990205 897  0.7+  0.0     060220 691  0.3+  0.0   

981218 511  0.1-  0.3+    990205 897  0.5-  1.1-    060220 691  0.0   0.0   

981218 511  0.1-  0.4+    990206 402  0.3+  0.7-    060220 691  0.0   0.3+  

981218 511  0.2-  0.5+    990206 402  0.8+  0.3-    060224 691  0.3+  0.4+  

981218 511  0.1+  0.5+    990206 402  1.3+  0.5+    060224 691  0.3+  0.2+  

981218 511  0.1-  0.5+    990208 402  1.4+  0.7-    060224 691  0.7+  0.9-  

981218 511  0.1-  0.7+    990208 402  1.5+  0.3-    060302 691  0.2-  0.1+  

981218 511  0.1-  0.6-    990208 402  1.3+  0.6-    060302 691  0.6+  0.5+  

981218 402  0.8-  0.5+    990212 699  0.6-  0.9+    060302 691  0.4+  0.4+  

981218 402  0.6-  0.3+    990212 699  0.3-  0.1+    060323 G96  1.0-  0.3+  

981218 402  0.3+  0.2+    990212 699  0.1-  0.0     060323 G96  0.6+  0.2+  

981218 402  0.5-  0.6+    990213 691  0.5-  0.1-    060323 G96  1.0-  0.4+  

981219 897  0.8-  1.6-    990213 691  0.6-  0.2-    060323 G96  0.5+  0.4+  

981219 897 (3.2-  1.7-)   990213 691  0.1+  0.1+    060324 G96  0.1+  0.1+  

981219 372 (1.0+  2.2+)   990213 691  0.2-  0.2-    060324 G96  1.3+  0.0   

981219 372  0.7+  1.8+    990213 691  0.7-  0.5+    060324 G96  0.4-  0.1+  

981220 897 (3.7-  0.2-)   990213 691  0.5-  0.5-    060324 G96  0.1+  0.4+  

981221 372 (2.5+  0.5+)   990213 691  0.8-  0.8+                            

981221 360  0.8+  0.8+    990213 691  0.3-  0.2-                            



NAKANO

         **** Don't distribute anyone except personal use only ****

                (C) Copyright 2008 OAA/ComputingSection

write mail from CFAD0::NAKANO on 2008-05-03 23:24:22(JST).

 



戻ります。